FW7959 Weather Reports


Display with metric or nautical units.
time (UTC)temp
F
wind
direction
speed
MPH
gust
MPH
rain 1hr
in
rain 24hr
in
rain mn
in
humidity
%
barometer
mb
20260507062402 56 36 6.0 13.0 0.00 0.00 0.00 70 1010.8
20260507061902 56 36 6.0 13.0 0.00 0.00 0.00 70 1010.7
20260507061344 56 40 8.0 11.0 0.00 0.00 0.00 70 1010.7
20260507060843 56 47 6.0 8.0 0.00 0.00 0.00 70 1010.7
20260507060348 56 46 5.0 8.0 0.00 0.00 0.00 70 1010.6
20260507055851 56 55 5.0 8.0 0.00 0.00 0.00 70 1010.6
20260507054856 56 32 7.0 10.0 0.00 0.00 0.00 70 1010.5
20260507054355 56 31 6.0 9.0 0.00 0.00 0.00 70 1010.4
20260507053857 56 22 5.0 10.0 0.00 0.00 0.00 70 1010.4
20260507053359 56 44 5.0 11.0 0.00 0.00 0.00 70 1010.4
20260507052342 56 46 4.0 10.0 0.00 0.00 0.00 69 1010.4
20260507051843 56 42 5.0 11.0 0.00 0.00 0.00 69 1010.3
20260507051343 56 57 5.0 8.0 0.00 0.00 0.00 69 1010.3
20260507050845 56 30 6.0 8.0 0.00 0.00 0.00 69 1010.3
20260507045850 56 46 5.0 10.0 0.00 0.00 0.00 69 1010.4
20260507044853 56 42 4.0 9.0 0.00 0.00 0.00 69 1010.3
20260507044355 56 35 5.0 9.0 0.00 0.00 0.00 68 1010.4
20260507043857 56 34 5.0 12.0 0.00 0.00 0.00 68 1010.4
20260507043358 56 45 7.0 12.0 0.00 0.00 0.00 68 1010.4
20260507042856 56 40 6.0 8.0 0.00 0.00 0.00 68 1010.3
20260507042357 56 38 5.0 11.0 0.00 0.00 0.00 68 1010.3
20260507041856 56 46 7.0 11.0 0.00 0.00 0.00 68 1010.3
20260507041358 56 40 6.0 10.0 0.00 0.00 0.00 68 1010.4
20260507040901 55 35 6.0 11.0 0.00 0.00 0.00 68 1010.4
20260507040401 55 22 6.0 11.0 0.00 0.00 0.00 68 1010.4
20260507035842 55 42 4.0 8.0 0.00 0.00 0.00 68 1010.4
20260507034851 55 32 4.0 8.0 0.00 0.00 0.00 68 1010.5
20260507034352 55 50 4.0 8.0 0.00 0.00 0.00 68 1010.4
20260507033854 55 49 5.0 8.0 0.00 0.00 0.00 67 1010.5
20260507033354 55 41 5.0 8.0 0.00 0.00 0.00 67 1010.5
20260507032856 55 44 5.0 8.0 0.00 0.00 0.00 67 1010.5
20260507032358 55 31 4.0 8.0 0.00 0.00 0.00 67 1010.5
20260507031901 55 27 3.0 8.0 0.00 0.00 0.00 67 1010.4
20260507031344 55 13 5.0 8.0 0.00 0.00 0.00 67 1010.5
20260507030844 55 30 3.0 5.0 0.00 0.00 0.00 67 1010.5
20260507030345 55 34 3.0 6.0 0.00 0.00 0.00 66 1010.5
20260507025846 55 33 3.0 6.0 0.00 0.00 0.00 66 1010.6
20260507025349 55 30 4.0 9.0 0.00 0.00 0.00 66 1010.6
20260507024849 55 23 4.0 9.0 0.00 0.00 0.00 66 1010.5
20260507024349 55 33 3.0 8.0 0.00 0.00 0.00 66 1010.5
20260507023850 55 36 4.0 6.0 0.00 0.00 0.00 66 1010.6
20260507023355 54 36 5.0 7.0 0.00 0.00 0.00 66 1010.5
20260507022854 55 33 4.0 8.0 0.00 0.00 0.00 66 1010.5
20260507022353 55 24 4.0 8.0 0.00 0.00 0.00 65 1010.5
20260507021856 55 30 4.0 7.0 0.00 0.00 0.00 65 1010.5
20260507021357 55 30 5.0 7.0 0.00 0.00 0.00 64 1010.5
20260507015844 55 35 6.0 12.0 0.00 0.00 0.00 63 1010.4
20260507013902 55 29 7.0 13.0 0.00 0.00 0.00 62 1010.4
20260507013358 56 25 7.0 13.0 0.00 0.00 0.00 61 1010.4
20260507012858 56 17 8.0 13.0 0.00 0.00 0.00 61 1010.5
20260507012400 56 5 7.0 15.0 0.00 0.00 0.00 61 1010.5
20260507011901 56 32 9.0 15.0 0.00 0.00 0.00 60 1010.5
20260507011402 56 43 7.0 14.0 0.00 0.00 0.00 60 1010.5
20260507010346 56 27 6.0 15.0 0.00 0.00 0.00 59 1010.5
20260507005850 56 16 8.0 15.0 0.00 0.00 0.00 59 1010.5
20260507005351 56 29 7.0 12.0 0.00 0.00 0.00 59 1010.5
20260507004359 56 50 6.0 12.0 0.00 0.00 0.00 57 1010.6
20260507003401 55 53 6.0 10.0 0.00 0.00 0.00 57 1010.5
20260507002844 55 33 0.0 10.0 0.00 0.00 0.00 57 1010.4
20260507002345 55 355 0.0 0.0 0.00 0.00 0.00 57 1010.4
20260507001845 55 350 0.0 0.0 0.00 0.00 0.00 56 1010.4
20260507001349 55 311 0.0 0.0 0.00 0.00 0.00 56 1010.4
20260507000848 54 271 0.0 0.0 0.00 0.00 0.00 57 1010.4
20260507000351 54 271 0.0 0.0 0.00 0.00 0.00 57 1010.4
20260506235854 54 271 0.0 0.0 0.00 0.00 0.00 57 1010.4
20260506235354 54 271 0.0 0.0 0.00 0.00 0.00 57 1010.4
20260506234854 54 271 0.0 0.0 0.00 0.00 0.00 57 1010.4
20260506234357 54 271 0.0 0.0 0.00 0.00 0.00 58 1010.4
20260506233401 53 271 0.0 0.0 0.00 0.00 0.00 59 1010.3
20260506231847 53 271 0.0 0.0 0.00 0.00 0.00 60 1010.3
20260506231351 53 271 0.0 0.0 0.00 0.00 0.00 59 1010.2
20260506230851 53 271 0.0 0.0 0.00 0.00 0.00 59 1010.2
20260506230354 53 271 0.0 0.0 0.00 0.00 0.00 58 1010.2
20260506225855 53 271 0.0 0.0 0.00 0.00 0.00 58 1010.3
20260506225357 54 271 0.0 0.0 0.00 0.00 0.00 57 1010.3
20260506224857 53 271 0.0 0.0 0.00 0.00 0.00 57 1010.2
20260506223842 53 271 0.0 0.0 0.00 0.00 0.00 58 1010.1
20260506223345 53 271 0.0 0.0 0.00 0.00 0.00 58 1010.1
20260506222845 53 271 0.0 0.0 0.00 0.00 0.00 58 1010.0
20260506222345 53 271 0.0 0.0 0.00 0.00 0.00 57 1010.0
20260506221846 54 271 0.0 0.0 0.00 0.00 0.00 58 1010.0
20260506221347 54 271 0.0 0.0 0.00 0.00 0.00 57 1010.0
20260506220848 54 271 0.0 0.0 0.00 0.00 0.00 57 1010.0
20260506220351 54 271 0.0 0.0 0.00 0.00 0.00 57 1010.0
20260506215854 54 271 0.0 0.0 0.00 0.00 0.00 57 1010.0
20260506215352 54 271 0.0 0.0 0.00 0.00 0.00 57 1010.1
20260506214854 54 271 0.0 0.0 0.00 0.00 0.00 56 1010.1
20260506214356 54 271 0.0 0.0 0.00 0.00 0.00 56 1010.1
20260506213858 54 271 0.0 0.0 0.00 0.00 0.00 57 1010.1
20260506213358 54 271 0.0 0.0 0.00 0.00 0.00 57 1010.1
20260506212859 54 271 0.0 0.0 0.00 0.00 0.00 57 1010.1
20260506211842 54 271 0.0 0.0 0.00 0.00 0.00 55 1010.0
20260506210849 55 271 0.0 0.0 0.00 0.00 0.00 52 1010.0
20260506205343 54 271 0.0 0.0 0.00 0.00 0.00 50 1010.1
20260506204900 54 271 0.0 0.0 0.00 0.00 0.00 52 1010.1
20260506204340 55 271 0.0 0.0 0.00 0.00 0.00 51 1010.0
20260506203901 55 271 0.0 0.0 0.00 0.00 0.00 50 1010.0
20260506203359 56 244 0.0 0.0 0.00 0.00 0.00 48 1009.9
20260506202855 57 239 0.0 0.0 0.00 0.00 0.00 46 1009.9
20260506202353 56 240 0.0 0.0 0.00 0.00 0.00 46 1009.8
20260506201852 56 240 0.0 0.0 0.00 0.00 0.00 46 1009.8
20260506201350 56 240 0.0 0.0 0.00 0.00 0.00 46 1009.8
20260506200850 56 240 0.0 0.0 0.00 0.00 0.00 49 1009.8
20260506200351 56 240 0.0 0.0 0.00 0.00 0.00 50 1009.7
20260506195852 57 240 0.0 0.0 0.00 0.00 0.00 49 1009.7
20260506195353 57 239 0.0 0.0 0.00 0.00 0.00 48 1009.7
20260506194850 58 240 0.0 0.0 0.00 0.00 0.00 46 1009.6
20260506194351 58 240 0.0 0.0 0.00 0.00 0.00 45 1009.6
20260506193849 59 222 0.0 0.0 0.00 0.00 0.00 44 1009.6
20260506193347 61 215 0.0 0.0 0.00 0.00 0.00 43 1009.6
20260506192849 62 215 0.0 0.0 0.00 0.00 0.00 41 1009.4
20260506192350 63 215 0.0 0.0 0.00 0.00 0.00 38 1009.4
20260506191850 65 215 0.0 0.0 0.00 0.00 0.00 35 1009.4
20260506191353 65 215 0.0 0.0 0.00 0.00 0.00 32 1009.4
20260506190854 65 215 0.0 0.0 0.00 0.00 0.00 31 1009.4
20260506190357 66 215 0.0 0.0 0.00 0.00 0.00 31 1009.4
20260506185401 66 215 0.0 0.0 0.00 0.00 0.00 31 1009.4
20260506184901 66 215 0.0 0.0 0.00 0.00 0.00 31 1009.4
20260506184342 67 215 0.0 0.0 0.00 0.00 0.00 31 1009.3
20260506183846 67 215 0.0 0.0 0.00 0.00 0.00 30 1009.3
20260506183348 67 215 0.0 0.0 0.00 0.00 0.00 30 1009.4
20260506182850 67 215 0.0 0.0 0.00 0.00 0.00 30 1009.3
20260506182352 67 215 0.0 0.0 0.00 0.00 0.00 30 1009.4
20260506181851 67 217 0.0 0.0 0.00 0.00 0.00 30 1009.4
20260506181351 67 215 0.0 0.0 0.00 0.00 0.00 30 1009.4
20260506180853 67 214 0.0 8.0 0.00 0.00 0.00 30 1009.4
20260506180355 67 215 0.0 8.0 0.00 0.00 0.00 30 1009.3
20260506175854 67 211 3.0 7.0 0.00 0.00 0.00 30 1009.4
20260506175358 67 198 0.0 7.0 0.00 0.00 0.00 31 1009.4
20260506174859 66 175 3.0 8.0 0.00 0.00 0.00 31 1009.4
20260506174359 67 152 5.0 8.0 0.00 0.00 0.00 30 1009.4
20260506173902 67 161 0.0 0.0 0.00 0.00 0.00 31 1009.4
20260506173343 67 142 0.0 0.0 0.00 0.00 0.00 31 1009.5
20260506172902 67 66 0.0 0.0 0.00 0.00 0.00 30 1009.5
20260506172343 67 66 0.0 0.0 0.00 0.00 0.00 30 1009.4
20260506171844 67 134 0.0 6.0 0.00 0.00 0.00 31 1009.5
20260506170850 66 124 6.0 8.0 0.00 0.00 0.00 31 1009.5
20260506170353 67 109 5.0 8.0 0.00 0.00 0.00 30 1009.5
20260506165900 67 198 2.0 7.0 0.00 0.00 0.00 30 1009.5
20260506165344 67 217 0.0 0.0 0.00 0.00 0.00 31 1009.5
20260506164846 67 252 0.0 0.0 0.00 0.00 0.00 32 1009.5
20260506164349 67 205 0.0 0.0 0.00 0.00 0.00 30 1009.6
20260506163852 67 202 0.0 0.0 0.00 0.00 0.00 30 1009.6
20260506163355 67 202 0.0 0.0 0.00 0.00 0.00 30 1009.7
20260506162858 67 202 0.0 8.0 0.00 0.00 0.00 31 1009.7
20260506162359 66 162 0.0 8.0 0.00 0.00 0.00 32 1009.7
20260506161859 66 212 0.0 2.0 0.00 0.00 0.00 32 1009.7
20260506161358 66 213 0.0 0.0 0.00 0.00 0.00 33 1009.7
20260506160858 66 213 0.0 6.0 0.00 0.00 0.00 31 1009.8
20260506160400 67 213 4.0 8.0 0.00 0.00 0.00 31 1009.8
20260506155842 68 207 5.0 8.0 0.00 0.00 0.00 30 1009.9
20260506155344 69 269 0.0 0.0 0.00 0.00 0.00 31 1009.9
20260506154354 67 196 0.0 5.0 0.00 0.00 0.00 32 1009.9
20260506153857 66 196 0.0 8.0 0.00 0.00 0.00 34 1009.9
20260506153400 66 107 6.0 8.0 0.00 0.00 0.00 32 1010.0
20260506152901 66 184 3.0 6.0 0.00 0.00 0.00 32 1010.0
20260506152401 66 189 0.0 6.0 0.00 0.00 0.00 34 1010.0
20260506151842 66 187 0.0 9.0 0.00 0.00 0.00 33 1010.1
20260506151401 66 151 2.0 9.0 0.00 0.00 0.00 33 1010.1
20260506150901 66 133 0.0 11.0 0.00 0.00 0.00 34 1010.2
20260506145845 66 202 5.0 9.0 0.00 0.00 0.00 34 1010.4
20260506145344 65 119 6.0 9.0 0.00 0.00 0.00 35 1010.5
20260506144846 65 173 1.0 10.0 0.00 0.00 0.00 36 1010.6
20260506144350 65 173 5.0 11.0 0.00 0.00 0.00 36 1010.6
20260506143851 65 151 5.0 11.0 0.00 0.00 0.00 38 1010.5
20260506143351 64 63 0.0 0.0 0.00 0.00 0.00 37 1010.6
20260506142851 64 65 0.0 0.0 0.00 0.00 0.00 38 1010.8
20260506142352 64 76 0.0 0.0 0.00 0.00 0.00 37 1010.8
20260506141854 64 100 0.0 7.0 0.00 0.00 0.00 39 1010.9
20260506140902 64 109 6.0 9.0 0.00 0.00 0.00 37 1011.0
20260506140345 65 98 0.0 6.0 0.00 0.00 0.00 37 1011.1
20260506135848 65 214 2.0 6.0 0.00 0.00 0.00 36 1011.2
20260506135350 65 48 0.0 8.0 0.00 0.00 0.00 38 1011.2
20260506134851 65 61 4.0 13.0 0.00 0.00 0.00 37 1011.2
20260506133854 65 78 0.0 0.0 0.00 0.00 0.00 43 1011.3
20260506131848 64 63 0.0 0.0 0.00 0.00 0.00 40 1011.5
20260506131352 65 49 0.0 0.0 0.00 0.00 0.00 38 1011.5
20260506130855 65 51 0.0 0.0 0.00 0.00 0.00 40 1011.7
20260506130356 65 107 0.0 0.0 0.00 0.00 0.00 43 1011.7
20260506125900 64 183 0.0 0.0 0.00 0.00 0.00 42 1011.8
20260506125343 63 104 0.0 0.0 0.00 0.00 0.00 40 1011.7
20260506124347 64 215 3.0 10.0 0.00 0.00 0.00 39 1012.0
20260506123351 63 95 6.0 12.0 0.00 0.00 0.00 41 1012.0
20260506122854 63 70 6.0 12.0 0.00 0.00 0.00 40 1012.0
20260506122356 64 86 3.0 8.0 0.00 0.00 0.00 41 1012.1
20260506121857 64 101 2.0 5.0 0.00 0.00 0.00 40 1012.2
20260506121357 64 244 0.0 7.0 0.00 0.00 0.00 43 1012.2
20260506120858 64 246 1.0 7.0 0.00 0.00 0.00 41 1012.3
20260506120400 63 239 0.0 0.0 0.00 0.00 0.00 42 1012.3
20260506115844 63 234 0.0 0.0 0.00 0.00 0.00 43 1012.4
20260506115346 62 234 0.0 5.0 0.00 0.00 0.00 43 1012.5
20260506114850 61 213 0.0 11.0 0.00 0.00 0.00 44 1012.5
20260506114351 61 116 4.0 11.0 0.00 0.00 0.00 45 1012.6
20260506113855 61 111 0.0 7.0 0.00 0.00 0.00 44 1012.7
20260506113355 61 188 0.0 11.0 0.00 0.00 0.00 45 1012.7
20260506112856 61 125 7.0 11.0 0.00 0.00 0.00 46 1012.7
20260506112400 61 196 0.0 8.0 0.00 0.00 0.00 45 1012.7
20260506111900 62 67 2.0 8.0 0.00 0.00 0.00 46 1012.8
20260506111400 62 88 2.0 8.0 0.00 0.00 0.00 47 1012.8
20260506110900 62 223 0.0 0.0 0.00 0.00 0.00 47 1012.9
20260506110359 61 230 0.0 0.0 0.00 0.00 0.00 47 1012.9
20260506105844 61 130 0.0 0.0 0.00 0.00 0.00 48 1013.1
20260506105345 60 86 0.0 4.0 0.00 0.00 0.00 50 1013.0
20260506104849 60 84 0.0 8.0 0.00 0.00 0.00 50 1013.1
20260506103856 61 96 5.0 8.0 0.00 0.00 0.00 49 1013.2
20260506103359 61 19 0.0 0.0 0.00 0.00 0.00 50 1013.2
20260506102859 60 76 0.0 0.0 0.00 0.00 0.00 50 1013.2
20260506101848 59 59 0.0 0.0 0.00 0.00 0.00 52 1013.3
20260506100358 59 132 0.0 0.0 0.00 0.00 0.00 52 1013.4
20260506095859 59 128 0.0 0.0 0.00 0.00 0.00 52 1013.4
20260506095357 58 101 0.0 0.0 0.00 0.00 0.00 54 1013.5
20260506094859 58 100 0.0 0.0 0.00 0.00 0.00 53 1013.4
20260506094358 58 102 0.0 0.0 0.00 0.00 0.00 51 1013.4
20260506093401 58 105 0.0 0.0 0.00 0.00 0.00 52 1013.5
20260506092859 58 157 0.0 0.0 0.00 0.00 0.00 55 1013.4
20260506092359 57 138 0.0 0.0 0.00 0.00 0.00 55 1013.5
20260506091858 57 132 0.0 0.0 0.00 0.00 0.00 55 1013.5
20260506091359 58 122 0.0 0.0 0.00 0.00 0.00 55 1013.5
20260506090843 57 38 0.0 0.0 0.00 0.00 0.00 56 1013.5
20260506090346 57 61 0.0 5.0 0.00 0.00 0.00 56 1013.6
20260506085846 57 59 0.0 9.0 0.00 0.00 0.00 57 1013.6
20260506085348 56 60 3.0 9.0 0.00 0.00 0.00 58 1013.5
20260506084848 56 74 5.0 9.0 0.00 0.00 0.00 58 1013.5
20260506084351 56 109 6.0 9.0 0.00 0.00 0.00 58 1013.6
20260506083855 56 52 4.0 11.0 0.00 0.00 0.00 60 1013.5
20260506083355 55 80 5.0 11.0 0.00 0.00 0.00 59 1013.6
20260506082401 56 83 7.0 10.0 0.00 0.00 0.00 58 1013.6
20260506081902 56 114 0.0 6.0 0.00 0.00 0.00 59 1013.6
20260506081343 55 59 3.0 8.0 0.00 0.00 0.00 60 1013.6
20260506080848 55 91 5.0 8.0 0.00 0.00 0.00 61 1013.6